Weather Roundup
Issued by NWS

Home | Current Version | Previous Version | Graphics & Text | Print | Product List | Glossary Off
Versions: 1 2 3 4 5 6 7 8 9 10 11 12 13 14 15 16 17 18 19 20 21 22 23 24 25 26 27 28 29 30 31 32 33 34 35 36 37 38 39 40 41 42 43 44 45 46 47 48 49 50

000
NZUS93 KARX 222210
HRRWXR

CURRENT HOURLY OBSERVATIONS ACROSS
MUCH OF THE UPPER MISSISSIPPI VALLEY
NATIONAL WEATHER SERVICE LA CROSSE WI
500 PM CDT FRI MAY 22 2015


...SOUTHEAST MINNESOTA...


CITY           SKY/WX    TMP DP  RH WIND       PRES   REMARKS
ROCHESTER      PTSUNNY   72  39  30 VRB3      30.21S
ROCHESTER/MAYO FAIR      73  32  22 NW3       30.20S
WINONA         MOSUNNY   73  37  27 NE5       30.19F
AUSTIN         PTSUNNY   72  43  35 CALM      30.19S
ALBERT LEA     PTSUNNY   73  32  21 S8        30.19S
DODGE CENTER   PTSUNNY   73  28  19 N5        30.20S
PRESTON        PTSUNNY   70  33  25 N5        30.20F
OWATONNA       PTSUNNY   73  28  19 CALM      30.19S
FARIBAULT      PTSUNNY   73  34  23 CALM      30.19S
$$

...ELSEWHERE IN MINNESOTA...


CITY           SKY/WX    TMP DP  RH WIND       PRES   REMARKS
MINNEAPOLIS    MOSUNNY   74  35  24 VRB7      30.18F
INTNL FALLS    SUNNY     74  29  19 W7        30.11F
DULUTH         MOSUNNY   72  32  23 NW10      30.17F
RED WING       SUNNY     73  30  20 CALM      30.18F
REDWOOD FALLS  PTSUNNY   75  31  19 VRB5      30.16F
MANKATO        PTSUNNY   72  30  21 N3        30.19S
WORTHINGTON    CLOUDY    73  30  20 S8        30.17F
FAIRMONT       CLOUDY    73  30  20 E6        30.18S
$$

...SOUTHWEST WISCONSIN...


CITY           SKY/WX    TMP DP  RH WIND       PRES   REMARKS
LA CROSSE      MOSUNNY   76  34  21 N6        30.18F
PRAIRIE DU CHI CLOUDY    73  36  25 SW3       30.18S
BOSCOBEL       PTSUNNY   76  37  24 VRB5      30.19S
LONE ROCK      MOSUNNY   74  34  23 NW3       30.18F
PLATTEVILLE    PTSUNNY   72  36  26 SW10      30.20S
FORT MC COY    SUNNY     73  33  23 W5        30.20F
CAMP DOUGLAS   SUNNY     72  36  26 CALM      30.19F
VIROQUA        FAIR      71  31  23 W5        30.20F
WIS DELLS      SUNNY     72  31  22 CALM      30.20F
$$

...ELSEWHERE IN WISCONSIN...


CITY           SKY/WX    TMP DP  RH WIND       PRES   REMARKS
MILWAUKEE      PTSUNNY   56  29  35 E7        30.26F
MADISON        PTSUNNY   72  38  29 CALM      30.20F
GREEN BAY      SUNNY     71  32  23 VRB7      30.21F
EAU CLAIRE     SUNNY     72  32  23 NW3       30.20F
BLACK RVR FLS  FAIR      73  30  20 W8        30.20S
MEDFORD        SUNNY     68  33  27 SW6       30.21S
WAUSAU         SUNNY     69  32  25 SW5       30.20S
WIS RAPIDS     SUNNY     72  30  21 VRB6      30.22S
MARSHFIELD     SUNNY     69  31  24 N5        30.22S
RICE LAKE      SUNNY     71  31  22 W5        30.22F
$$

...NORTHEAST IOWA...


CITY           SKY/WX    TMP DP  RH WIND       PRES   REMARKS
DECORAH        PTSUNNY   72  30  21 VRB3      30.19S
MASON CITY     CLOUDY    74  34  23 CALM      30.20S
CHARLES CITY   CLOUDY    75  34  22 SE8       30.19F
OELWEIN        CLOUDY    73  32  21 CALM      30.20S
$$

...ELSEWHERE IN IOWA...


CITY           SKY/WX    TMP DP  RH WIND       PRES   REMARKS
DES MOINES     CLOUDY    75  39  27 W6        30.19F
IOWA CITY      CLOUDY    74  38  27 CALM      30.20F
FORT DODGE     CLOUDY    72  39  30 CALM      30.20S
$$

...NORTHERN ILLINOIS...


CITY           SKY/WX    TMP DP  RH WIND       PRES   REMARKS
CHICAGO-OHARE  PTSUNNY   62  25  24 E10       30.24S
CHICAGO-MIDWAY PTSUNNY   63  24  22 E16       30.26R
MOLINE         CLOUDY    77  37  23 NW6       30.18F
ROCKFORD       CLOUDY    73  39  29 N5        30.22F
PEORIA         PTSUNNY   79  38  22 W6        30.19F
$$

NOTE: "FAIR" INDICATES FEW OR NO CLOUDS BELOW 12,000 FEET WITH NO
SIGNIFICANT WEATHER AND/OR OBSTRUCTIONS TO VISIBILITY. WIND
SPEEDS ARE IN MILES-PER-HOUR.



USA.gov is the U.S. government's official web portal to all federal, state and local government web resources and services.